{"data":{"norad_id":62147,"epoch":"2026-05-24T23:20:55.411584Z","epoch_age_seconds":67512,"freshness":"FRESH","line1":"1 62147U 24224J   26144.97286356  .00022291  00000+0  81683-3 0  9991","line2":"2 62147  42.9995  87.5424 0001567 269.7067  90.3605 15.27591268 84030","mean_motion":15.27591268,"eccentricity":0.0001567,"inclination_deg":42.9995,"raan_deg":87.5424,"arg_perigee_deg":269.7067,"mean_anomaly_deg":90.3605,"bstar":0.00081683,"rev_number":8403,"period_min":94.266053372073,"perigee_km":481.94021322726,"apogee_km":484.09049837557,"semimajor_km":6861.1523558014,"source":"CELESTRAK","updated_at":"2026-05-25T13:38:19.570549Z"}}